Wind_Speed
23 22 19 16 9 8 11 12 14 10 8 8 3 3 1 6 6 6 10 1 3 10 13 15 14 14 13 13 11 11 12 13 14 14 14 14 13 12 12 11 11 11 11 11 11 11 10 9 9
26 23 20 16 12 12 12 13 16 13 13 9 4 4 6 5 5 5 7 1 8 9 13 16 16 15 13 12 11 11 12 13 13 14 14 13 12 12 11 10 9 10 9 9 9 8 8 7 7
31 25 21 15 19 21 12 20 20 12 14 11 9 8 10 6 3 3 6 2 6 12 13 16 16 16 13 12 11 11 12 12 12 13 13 13 11 10 10 8 8 7 7 7 7 6 6 5 4
31 31 26 24 22 26 24 16 25 17 13 13 11 7 12 9 7 4 4 4 5 12 15 16 16 16 15 13 12 11 12 13 12 12 13 12 11 9 8 7 6 5 5 4 4 4 4 4 3
31 34 32 28 33 29 19 16 21 22 16 15 15 9 12 10 7 8 5 1 4 11 15 16 17 16 16 14 13 12 13 13 13 12 12 11 10 9 8 7 5 4 4 3 3 3 3 3 2
32 37 26 35 37 36 25 21 24 19 10 14 15 11 13 12 10 8 6 8 5 10 14 15 16 16 16 15 14 13 13 13 13 13 12 10 10 9 8 6 5 3 3 3 3 3 4 4 4
37 38 35 27 37 36 31 24 22 17 13 16 20 17 16 13 13 10 9 10 13 10 15 18 17 17 17 16 15 14 12 13 13 13 12 11 10 9 8 7 6 4 4 4 4 4 5 5 6
36 37 30 41 35 33 33 26 21 21 15 18 20 20 21 17 12 10 10 11 15 17 17 17 18 16 16 16 15 15 15 14 13 13 12 12 11 10 9 8 6 5 6 7 7 7 7 7 8
36 35 34 35 39 29 19 20 23 17 17 20 20 23 25 21 16 13 12 12 17 20 19 20 19 17 16 15 15 15 14 13 12 11 12 12 12 12 11 10 8 7 8 8 9 10 9 10 11
39 39 31 38 39 32 18 18 22 20 17 23 21 20 24 24 22 17 13 13 15 21 21 22 20 18 16 16 15 14 12 11 10 10 12 13 14 14 13 10 9 8 9 9 10 11 11 11 13
43 44 37 36 36 31 27 29 25 22 20 19 24 19 17 19 25 19 14 15 14 18 22 23 20 19 17 15 13 11 11 10 10 10 12 14 15 15 13 11 9 9 10 11 11 11 12 13 14
39 42 38 36 30 31 26 23 28 27 23 20 21 22 19 13 18 20 15 13 16 22 21 22 22 22 21 19 16 13 12 12 11 13 15 16 15 14 13 12 11 11 11 11 11 11 13 14 15
41 37 37 29 29 19 26 30 24 32 26 19 20 23 21 18 13 17 17 16 16 17 22 21 22 23 22 19 16 14 13 14 15 17 17 16 15 14 14 13 12 12 12 12 11 12 13 15 15
40 37 33 31 28 28 27 25 31 25 20 18 18 18 21 22 18 17 17 17 16 20 20 22 21 21 22 19 15 14 13 14 18 18 17 17 16 15 13 13 13 13 12 13 13 14 15 17 16
38 30 35 34 32 33 28 31 32 27 22 20 21 20 15 16 18 19 19 22 16 15 20 19 17 17 19 14 12 11 10 13 16 18 18 15 15 15 15 14 15 14 15 15 16 17 19 19 20
31 28 30 38 37 32 32 35 32 29 28 24 22 21 19 14 12 15 15 13 19 20 18 20 18 16 14 12 9 4 5 10 14 14 16 14 15 17 18 17 17 18 18 17 18 21 23 25 24
32 27 30 21 36 35 32 22 31 34 31 26 23 20 18 19 13 13 14 16 14 16 21 22 21 21 18 19 17 21 18 18 15 11 14 19 25 24 22 21 19 18 16 17 21 22 25 26 27
29 32 24 25 24 37 34 18 8 30 33 29 25 22 21 18 14 14 14 16 18 16 19 24 31 30 30 26 29 29 27 38 32 22 27 31 29 27 26 22 20 20 20 21 25 26 25 24 27
21 27 17 26 15 20 30 24 16 18 25 28 31 27 23 23 20 19 18 16 13 13 14 19 27 37 38 40 32 32 42 39 29 34 36 33 33 28 24 24 25 27 26 26 35 37 29 27 31
17 18 22 15 24 20 21 29 31 25 23 28 29 33 28 23 26 24 23 18 16 16 15 13 18 26 34 32 36 31 30 37 37 35 41 33 29 24 25 26 27 31 35 36 40 45 40 43 36
19 21 23 20 25 19 17 13 31 36 32 30 30 29 30 29 30 28 29 28 23 22 22 21 16 18 24 28 32 35 36 38 42 42 36 30 30 28 29 30 29 31 32 32 38 34 33 33 30
17 20 19 18 24 12 19 8 22 23 26 29 29 29 29 31 29 34 34 32 32 25 23 22 23 21 21 20 18 24 37 43 41 41 40 31 29 30 32 32 31 30 36 34 34 32 33 33 31
25 22 19 17 20 13 18 6 8 15 25 30 26 26 30 33 34 33 35 40 35 33 30 28 25 23 22 19 18 20 23 24 33 37 33 32 31 36 39 34 32 31 34 32 39 41 35 34 29
25 27 17 17 14 10 16 13 10 13 8 10 13 18 24 28 33 36 37 38 42 34 32 36 30 29 28 27 27 25 26 27 29 31 34 35 34 36 35 34 31 33 37 38 35 34 39 35 33
27 28 9 8 8 4 16 13 7 13 3 4 8 11 19 25 34 37 37 36 37 40 39 35 43 40 36 34 31 29 28 28 31 37 39 39 38 37 35 35 38 41 40 39 38 37 39 40 31
34 38 12 8 8 8 12 11 4 13 3 5 4 11 18 19 22 26 30 32 34 38 40 41 39 44 44 41 34 35 27 30 35 39 47 47 43 38 38 39 42 42 42 38 40 42 39 39 37
32 37 14 12 10 13 8 6 11 13 2 6 11 9 13 12 10 13 16 20 26 31 37 41 42 38 42 46 42 42 42 39 37 35 35 40 38 37 38 40 41 38 37 38 39 41 41 41 42
38 35 14 8 9 8 8 8 8 9 3 1 3 14 15 13 13 17 15 20 24 26 28 36 42 40 40 42 42 36 36 31 31 30 30 32 35 37 39 37 38 39 41 42 42 43 44 45 45
34 32 15 10 6 4 7 5 17 10 3 6 8 11 13 14 16 18 11 17 20 21 24 29 29 25 27 30 28 34 28 23 22 22 28 33 36 37 37 39 39 39 38 39 39 41 42 42 43
30 32 17 9 5 6 7 6 13 5 5 7 8 6 12 14 17 15 15 14 16 16 19 19 15 10 5 6 21 19 17 21 21 28 34 38 37 35 35 37 39 41 43 46 47 49 49 49 48
Wind_Direction
223 232 240 244 240 222 211 205 171 146 144 147 151 158 100 284 300 306 338 10 123 144 141 128 127 123 123 123 126 128 132 135 137 140 143 145 144 136 130 130 128 125 122 116 108 104 99 93 90
220 224 233 238 225 215 216 188 174 155 153 165 190 232 271 285 291 293 336 26 133 140 138 131 130 128 128 125 131 135 135 137 140 143 146 150 149 142 138 135 131 129 130 127 121 117 112 108 98
218 221 227 227 229 220 213 197 193 175 163 184 207 241 249 249 89 264 28 29 149 145 145 137 138 135 135 136 140 144 143 143 145 147 152 155 153 146 141 141 136 132 131 138 143 139 130 124 108
219 219 226 227 228 229 221 207 202 208 181 186 220 258 227 222 244 255 327 317 183 158 155 149 149 147 146 148 152 157 156 156 154 156 158 159 155 153 150 149 146 143 142 149 163 173 163 148 143
215 216 223 230 230 230 216 204 207 195 197 192 216 248 226 203 212 254 257 203 196 177 169 160 156 158 157 159 164 168 172 169 164 166 167 164 163 162 163 161 164 166 160 176 197 204 210 212 204
210 213 217 224 228 230 219 200 203 196 224 204 211 230 223 208 220 243 272 219 215 197 180 166 164 167 169 170 173 176 179 181 177 176 175 174 174 175 173 176 188 196 211 210 231 246 242 240 242
209 214 219 223 227 232 227 212 217 233 226 214 203 212 219 225 222 237 257 236 227 221 205 182 180 182 182 182 182 183 190 193 190 188 185 187 188 190 190 194 204 213 241 258 265 261 258 261 263
211 213 221 226 223 227 233 222 225 231 220 210 205 200 215 206 223 248 257 228 216 214 214 203 191 193 199 197 192 194 193 199 201 201 200 202 202 206 209 213 221 237 253 260 269 275 278 283 282
212 212 221 221 224 218 224 218 222 225 222 213 208 197 202 215 220 242 251 224 214 212 213 209 201 199 205 212 209 208 208 207 210 215 215 216 217 217 219 223 226 239 255 267 274 278 287 289 286
212 218 222 222 229 225 204 196 214 219 224 217 217 212 202 211 219 230 241 225 243 220 226 220 210 208 209 216 224 224 224 221 223 227 227 226 226 227 228 231 240 251 260 266 273 279 282 283 285
213 223 223 228 228 226 224 225 220 222 223 222 224 225 225 210 206 219 233 218 228 235 225 223 219 214 215 221 226 236 243 238 227 230 235 233 232 233 233 236 247 256 265 269 275 280 283 285 282
216 222 228 224 227 230 227 227 216 215 217 220 219 228 231 233 208 212 222 217 214 221 227 232 227 222 220 222 224 222 232 235 232 227 229 231 232 231 232 233 237 246 254 263 273 280 282 282 283
223 226 226 229 226 224 226 223 214 218 226 223 224 213 225 233 231 216 211 216 221 224 230 240 242 230 225 227 228 228 232 235 230 229 229 231 231 229 227 230 235 242 250 259 266 272 279 283 282
226 225 227 226 225 225 225 222 221 219 214 209 218 213 213 224 231 230 227 220 225 231 235 238 243 248 238 227 229 236 240 246 245 238 235 232 230 228 227 232 237 245 256 265 271 271 274 277 278
221 219 227 225 219 224 218 225 218 197 198 187 200 217 212 212 222 230 233 228 229 223 227 229 236 240 234 224 229 241 253 258 260 259 254 247 241 237 233 234 242 247 255 265 273 279 279 278 277
212 214 214 219 221 220 216 228 224 203 208 203 201 197 208 213 214 227 235 232 231 232 222 224 223 215 211 214 204 184 210 232 244 250 265 257 256 253 246 243 249 252 258 265 273 280 284 282 276
202 208 205 214 218 217 216 228 223 213 205 204 201 210 208 208 211 216 231 243 238 230 237 231 220 217 225 225 236 243 239 265 255 235 254 260 265 250 245 247 249 257 267 274 275 281 284 280 277
196 197 198 198 204 211 218 212 217 217 212 214 214 208 213 209 199 207 215 228 232 230 231 235 227 223 226 242 249 232 230 263 244 210 239 253 256 248 248 247 254 261 268 276 280 274 278 283 278
212 191 182 200 184 206 209 209 206 196 205 203 215 219 219 221 205 211 209 211 223 225 223 224 234 231 236 244 233 232 235 271 229 245 238 254 254 251 249 258 265 268 270 273 274 276 272 265 278
185 178 192 193 208 208 214 214 215 213 205 206 215 227 229 220 226 221 216 214 218 223 225 230 227 235 236 241 247 247 242 241 231 233 243 250 253 250 251 256 265 274 282 286 281 283 270 280 271
179 182 167 174 181 187 199 205 223 226 227 228 225 219 225 227 232 228 224 219 216 215 213 210 199 210 223 232 237 232 234 233 229 230 237 249 251 250 247 254 266 272 277 284 278 275 271 278 267
174 173 175 168 161 180 187 202 222 221 227 229 232 229 223 226 223 232 231 228 222 215 210 203 200 204 212 218 232 242 237 234 236 238 246 244 248 245 250 267 274 280 284 274 275 273 280 275 267
182 162 165 169 177 161 181 197 198 195 225 233 232 239 241 236 235 233 238 237 235 223 219 210 209 209 214 221 238 259 260 260 251 241 232 234 241 250 260 269 276 284 287 286 278 278 277 264 267
169 157 138 154 167 200 190 189 189 180 176 208 227 234 238 240 242 244 241 242 238 234 231 225 220 218 223 235 248 255 255 248 252 236 232 239 250 263 268 274 275 282 287 285 284 288 284 272 272
175 163 141 162 185 177 182 187 180 169 263 210 224 239 235 230 235 237 236 233 235 238 234 227 229 230 229 231 236 248 250 258 255 246 236 241 257 268 272 275 279 283 285 280 280 283 282 279 272
183 174 169 164 178 143 152 201 168 171 103 48 307 228 225 234 236 233 237 242 238 227 220 221 226 229 233 235 233 241 242 257 264 256 246 250 257 270 277 277 279 281 279 277 275 273 272 278 274
182 193 186 113 119 144 168 178 184 179 128 306 305 208 194 208 234 232 244 245 241 228 218 220 217 227 232 230 231 233 248 259 255 249 248 250 258 275 277 277 277 279 280 277 278 278 281 279 277
180 175 175 150 152 154 172 162 142 172 169 8 164 179 181 194 230 234 228 238 225 211 210 220 218 230 237 239 241 237 242 251 249 254 259 271 276 274 274 276 278 278 280 280 281 281 282 280 278
175 188 173 152 141 136 143 170 176 171 34 87 93 174 191 206 209 190 178 167 177 201 213 213 223 232 238 238 229 231 233 244 253 262 280 278 276 274 276 279 280 281 281 281 281 281 280 280 280
182 188 167 144 152 106 104 142 163 146 82 98 100 146 184 176 169 154 160 167 167 171 180 192 177 168 146 201 225 235 263 273 281 269 271 276 276 277 279 280 281 283 283 285 285 285 284 284 282
Height
3154 3156 3157 3160 3167 3164 3163 3165 3165 3166 3168 3168 3169 3170 3172 3172 3173 3177 3173 3171 3172 3173 3175 3176 3179 3181 3183 3185 3187 3190 3191 3193 3195 3197 3198 3200 3201 3202 3202 3203 3204 3204 3205 3206 3206 3206 3207 3207 3207
3151 3154 3156 3156 3160 3160 3160 3162 3164 3164 3165 3167 3169 3169 3170 3171 3171 3173 3173 3173 3172 3175 3176 3177 3179 3182 3185 3186 3188 3190 3192 3194 3196 3197 3199 3201 3203 3203 3204 3205 3205 3205 3206 3207 3207 3207 3208 3209 3208
3147 3151 3154 3153 3152 3153 3156 3159 3162 3163 3163 3166 3168 3169 3169 3170 3170 3171 3173 3174 3174 3175 3177 3178 3180 3182 3185 3187 3189 3191 3193 3195 3197 3198 3201 3203 3204 3204 3205 3205 3206 3206 3207 3207 3207 3208 3208 3209 3209
3141 3147 3149 3146 3145 3148 3152 3156 3159 3160 3162 3162 3165 3168 3167 3169 3169 3171 3173 3174 3175 3176 3177 3178 3180 3182 3185 3187 3189 3191 3193 3195 3198 3200 3201 3203 3204 3205 3206 3206 3207 3207 3207 3208 3208 3209 3209 3209 3209
3135 3140 3142 3138 3141 3144 3149 3153 3155 3157 3159 3159 3162 3165 3165 3166 3167 3169 3171 3174 3176 3176 3178 3179 3180 3183 3185 3187 3189 3192 3194 3195 3197 3199 3201 3203 3204 3205 3206 3207 3207 3207 3207 3208 3208 3209 3209 3209 3210
3129 3132 3133 3132 3136 3139 3145 3150 3152 3154 3156 3158 3159 3162 3163 3164 3165 3168 3170 3172 3175 3177 3179 3180 3182 3184 3186 3187 3190 3191 3193 3195 3197 3199 3201 3203 3204 3205 3205 3206 3207 3207 3208 3208 3208 3208 3209 3209 3209
3120 3124 3125 3129 3132 3135 3140 3147 3149 3151 3154 3156 3155 3159 3161 3162 3164 3165 3168 3171 3174 3177 3179 3179 3182 3184 3185 3187 3189 3191 3193 3196 3197 3199 3200 3202 3203 3204 3204 3205 3206 3207 3207 3208 3207 3207 3207 3208 3208
3115 3120 3120 3120 3126 3132 3135 3142 3146 3148 3151 3152 3153 3154 3158 3161 3163 3164 3166 3168 3170 3174 3177 3179 3181 3184 3186 3187 3189 3191 3192 3194 3196 3198 3200 3201 3202 3203 3204 3205 3206 3206 3206 3206 3206 3206 3207 3207 3207
3109 3112 3110 3115 3121 3129 3132 3137 3142 3145 3147 3149 3150 3151 3155 3158 3160 3162 3164 3166 3169 3171 3175 3178 3180 3182 3185 3187 3188 3190 3193 3194 3196 3198 3199 3200 3201 3202 3203 3204 3204 3204 3205 3206 3205 3205 3205 3205 3205
3102 3102 3106 3111 3117 3124 3130 3134 3138 3142 3143 3145 3147 3149 3150 3154 3157 3160 3163 3165 3168 3171 3174 3177 3178 3181 3183 3186 3188 3190 3193 3195 3196 3197 3198 3199 3200 3200 3201 3202 3203 3204 3204 3205 3204 3204 3203 3203 3203
3092 3094 3101 3107 3113 3121 3125 3129 3133 3137 3139 3142 3145 3147 3149 3150 3153 3157 3160 3163 3167 3170 3172 3175 3177 3180 3182 3184 3187 3190 3192 3194 3195 3197 3198 3198 3198 3199 3200 3201 3202 3202 3203 3203 3203 3203 3202 3201 3200
3087 3091 3095 3103 3110 3116 3121 3125 3129 3132 3135 3138 3142 3144 3146 3148 3150 3153 3157 3159 3163 3167 3171 3174 3176 3178 3180 3182 3185 3187 3189 3191 3193 3194 3194 3195 3196 3197 3199 3199 3199 3199 3200 3200 3200 3201 3200 3199 3198
3081 3085 3093 3100 3107 3112 3116 3120 3124 3127 3130 3135 3137 3140 3143 3145 3148 3150 3153 3157 3160 3164 3168 3171 3174 3176 3178 3180 3183 3184 3187 3189 3190 3191 3192 3193 3195 3196 3196 3196 3197 3197 3197 3197 3197 3197 3197 3196 3195
3076 3083 3090 3096 3102 3106 3111 3114 3118 3123 3126 3130 3134 3136 3138 3142 3145 3147 3151 3153 3157 3160 3164 3167 3170 3174 3176 3177 3180 3182 3185 3187 3189 3189 3190 3191 3192 3193 3195 3195 3195 3195 3195 3196 3195 3195 3194 3193 3192
3073 3079 3086 3089 3095 3099 3107 3109 3109 3118 3122 3126 3129 3133 3135 3138 3140 3144 3147 3150 3153 3156 3160 3164 3167 3170 3173 3175 3178 3180 3182 3185 3188 3190 3191 3192 3192 3193 3193 3192 3193 3192 3192 3192 3192 3191 3191 3190 3189
3068 3074 3076 3079 3087 3093 3100 3097 3105 3113 3117 3122 3126 3129 3133 3136 3139 3141 3144 3146 3149 3152 3156 3160 3164 3167 3170 3173 3175 3178 3180 3181 3183 3185 3189 3190 3190 3191 3190 3190 3190 3189 3188 3188 3188 3187 3187 3187 3185
3058 3059 3066 3076 3080 3088 3092 3097 3099 3107 3113 3118 3123 3127 3130 3133 3136 3139 3142 3144 3146 3149 3151 3155 3159 3163 3168 3170 3172 3175 3179 3180 3181 3181 3186 3189 3186 3185 3185 3186 3185 3185 3185 3184 3184 3182 3181 3181 3180
3042 3054 3062 3070 3076 3082 3087 3093 3096 3102 3108 3115 3119 3123 3127 3131 3134 3136 3139 3141 3144 3145 3148 3150 3154 3158 3161 3164 3166 3168 3171 3175 3177 3175 3181 3182 3181 3181 3181 3182 3181 3180 3180 3179 3178 3177 3175 3176 3175
3047 3053 3060 3068 3074 3081 3085 3091 3096 3098 3104 3110 3114 3118 3122 3127 3132 3133 3136 3139 3141 3143 3144 3146 3149 3152 3154 3157 3159 3162 3164 3167 3171 3173 3176 3176 3176 3176 3177 3178 3177 3175 3175 3173 3173 3172 3169 3169 3168
3047 3051 3058 3067 3072 3079 3082 3087 3093 3097 3100 3104 3109 3113 3117 3122 3126 3130 3133 3135 3138 3140 3142 3143 3145 3147 3149 3152 3155 3157 3157 3162 3165 3169 3169 3171 3170 3172 3173 3173 3172 3170 3169 3168 3166 3167 3166 3165 3160
3045 3051 3055 3062 3069 3077 3081 3086 3087 3091 3095 3099 3103 3108 3112 3116 3120 3124 3128 3132 3134 3137 3139 3140 3141 3143 3145 3148 3150 3152 3153 3155 3158 3160 3162 3164 3164 3164 3165 3166 3165 3163 3161 3160 3160 3159 3157 3157 3154
3045 3051 3056 3060 3065 3073 3077 3080 3082 3086 3089 3093 3097 3101 3105 3108 3112 3116 3120 3124 3129 3134 3135 3137 3138 3140 3143 3144 3146 3147 3148 3150 3152 3155 3156 3157 3158 3156 3156 3157 3158 3157 3154 3153 3153 3153 3151 3150 3147
3044 3051 3055 3059 3064 3069 3074 3080 3078 3079 3083 3086 3091 3094 3097 3100 3105 3108 3112 3117 3122 3128 3133 3133 3135 3136 3138 3140 3141 3142 3142 3142 3145 3144 3147 3150 3150 3150 3148 3148 3148 3148 3148 3147 3147 3145 3143 3141 3141
3043 3049 3054 3059 3064 3067 3068 3073 3075 3076 3080 3082 3085 3087 3090 3093 3096 3099 3103 3109 3115 3120 3125 3129 3130 3132 3133 3135 3135 3137 3137 3137 3138 3139 3142 3144 3145 3144 3143 3143 3141 3140 3140 3140 3139 3137 3136 3135 3133
3040 3045 3052 3060 3060 3059 3065 3071 3071 3073 3075 3079 3081 3082 3083 3085 3086 3089 3093 3098 3103 3110 3116 3119 3122 3126 3128 3130 3132 3132 3132 3132 3134 3135 3135 3137 3138 3138 3136 3135 3134 3133 3132 3131 3130 3130 3130 3126 3124
3030 3036 3036 3040 3048 3055 3063 3065 3067 3070 3072 3073 3075 3075 3075 3077 3079 3082 3087 3091 3095 3099 3103 3108 3112 3117 3122 3124 3126 3127 3126 3127 3127 3127 3130 3131 3132 3131 3130 3129 3127 3127 3126 3124 3123 3121 3119 3117 3116
3031 3035 3040 3041 3048 3053 3061 3064 3065 3067 3069 3070 3068 3069 3072 3075 3078 3081 3084 3085 3087 3090 3096 3101 3106 3111 3114 3117 3118 3121 3122 3123 3121 3121 3121 3122 3124 3125 3125 3123 3121 3118 3116 3114 3113 3111 3109 3108 3107
3022 3034 3038 3037 3044 3049 3057 3060 3062 3065 3067 3067 3066 3067 3069 3072 3075 3076 3077 3078 3081 3087 3093 3098 3101 3105 3107 3109 3112 3116 3117 3118 3117 3117 3118 3119 3119 3118 3117 3114 3112 3109 3107 3104 3102 3100 3099 3098 3096
3023 3029 3032 3034 3038 3041 3051 3056 3059 3062 3064 3064 3064 3065 3068 3069 3070 3073 3075 3078 3082 3086 3090 3094 3100 3103 3104 3104 3106 3109 3112 3112 3112 3112 3112 3111 3110 3108 3107 3105 3102 3099 3096 3095 3093 3091 3088 3085 3083
3023 3029 3030 3034 3040 3040 3044 3056 3055 3059 3061 3062 3062 3063 3065 3066 3071 3076 3078 3078 3082 3085 3089 3092 3095 3097 3099 3101 3103 3106 3107 3107 3108 3109 3106 3105 3103 3101 3098 3096 3093 3090 3087 3084 3081 3078 3075 3072 3070